Akron Canton, OH

1:07 AM EDT on June 23, 2017 (GMT -0400)
Akron-Canton Regional

Weather History for KCAK - March, 2012

Change the Weather History Date:

Sunday, March 4, 2012

  Actual Average Record
Temperature  
Mean Temperature 32 °F 33 °F  
Max Temperature 35 °F 42 °F 74 °F (1983)
Min Temperature 28 °F 25 °F -1 °F (1943)
Degree Days  
Heating Degree Days 33 32  
Month to date heating degree days 99 129  
Since 1 July heating degree days 3936 4673  
Cooling Degree Days 0 0  
Month to date cooling degree days 0 0  
Year to date cooling degree days 0 0  
Moisture  
Dew Point 24 °F    
Average Humidity 81    
Maximum Humidity 92    
Minimum Humidity 69    
Precipitation  
Precipitation 0.22 in 0.08 in 2.44 in (1964)
Month to date precipitation 0.85 0.34  
Year to date precipitation 6.68 5.26  
Snow  
Snow 2.20 in 0.40 in - ()
Month to date snowfall 2.4 1.4  
Since 1 July snowfall 29.8 37.9  
Snow Depth 0.00 in    
Sea Level Pressure  
Sea Level Pressure 29.79 in    
Wind  
Wind Speed 9 mph (West)    
Max Wind Speed 20 mph    
Max Gust Speed 26 mph    
Visibility 4 miles    
Events Snow    
T = Trace of Precipitation, MM = Missing Value Source: NWS Daily Summary

Daily Weather History Graph

Daily Weather History Graph

Search for Another Location

Airport or City:

Trip Planner

Search our weather history database for the weather conditions in past years. The results will help you decide how hot, cold, wet, or windy it might be!

Date:

Astronomy

Mar. 04, 2012 Rise Set
Actual Time 6:54 AM EST 6:20 PM EST
Civil Twilight 6:26 AM EST 6:48 PM EST
Nautical Twilight 5:55 AM EST 7:20 PM EST
Astronomical Twilight 5:23 AM EST 7:52 PM EST
Moon 2:30 PM EST (3/4) 4:15 AM EST (3/4)
Length of Visible Light 12h 21m
Length of Day
11h 26m
Waxing Gibbous, 83% of the Moon is Illuminated
Mar 4
Waxing Gibbous
Mar 8
Full
Mar 14
Last Quarter
Mar 22
New
Mar 30
First Quarter

Hourly Weather History & Observations

Time (EST) Temp. Windchill Dew Point Humidity Pressure Visibility Wind Dir Wind Speed Gust Speed Precip Events Conditions
12:00 AM 28.4 °F 18.5 °F 24.8 °F 86% 29.75 in 2.0 mi WNW 11.5 mph - 0.00 in Snow Light Snow
12:02 AM 28.4 °F 18.5 °F 24.8 °F 86% 29.75 in 5.0 mi West 11.5 mph - 0.00 in Snow Light Snow
12:51 AM 28.9 °F 22.8 °F 24.1 °F 82% 29.77 in 10.0 mi West 5.8 mph - 0.00 in   Overcast
1:24 AM 28.4 °F 18.0 °F 24.8 °F 86% 29.75 in 1.0 mi WNW 12.7 mph 19.6 mph 0.00 in Snow Light Snow
1:36 AM 28.4 °F 19.1 °F 23.0 °F 80% 29.74 in 3.0 mi West 10.4 mph - 0.01 in Snow Light Snow
1:51 AM 28.9 °F 19.2 °F 23.0 °F 78% 29.78 in 9.0 mi WSW 11.5 mph - 0.01 in   Overcast
2:51 AM 28.9 °F 20.4 °F 19.9 °F 69% 29.77 in 10.0 mi West 9.2 mph - N/A   Overcast
3:51 AM 28.9 °F 20.4 °F 19.9 °F 69% 29.76 in 10.0 mi West 9.2 mph - N/A   Overcast
4:51 AM 28.9 °F 20.4 °F 19.9 °F 69% 29.76 in 9.0 mi West 9.2 mph - N/A   Overcast
5:51 AM 28.0 °F 20.8 °F 21.0 °F 75% 29.77 in 8.0 mi West 6.9 mph - N/A   Overcast
6:51 AM 28.9 °F 19.8 °F 21.0 °F 72% 29.77 in 9.0 mi WSW 10.4 mph - N/A   Overcast
7:51 AM 28.9 °F 21.1 °F 21.9 °F 75% 29.78 in 8.0 mi WSW 8.1 mph - 0.00 in Snow Light Snow
7:59 AM 28.4 °F 19.7 °F 21.2 °F 74% 29.75 in 3.0 mi WSW 9.2 mph - 0.00 in Snow Light Snow
8:51 AM 28.9 °F 21.1 °F 23.0 °F 78% 29.79 in 2.0 mi West 8.1 mph - 0.00 in Snow Light Snow
8:58 AM 28.4 °F 20.4 °F 23.0 °F 80% 29.76 in 1.0 mi West 8.1 mph - 0.00 in Snow Light Snow
9:51 AM 30.0 °F 21.7 °F 25.0 °F 82% 29.80 in 1.0 mi West 9.2 mph - 0.03 in Snow Light Snow
10:51 AM 30.9 °F 20.7 °F 25.0 °F 79% 29.79 in 1.0 mi West 13.8 mph - 0.02 in Snow Light Snow
11:03 AM 30.2 °F 18.9 °F 24.8 °F 80% 29.75 in 3.0 mi West 16.1 mph 21.9 mph 0.00 in Snow Light Snow
11:51 AM 33.1 °F 22.6 °F 24.1 °F 70% 29.79 in 7.0 mi West 16.1 mph - 0.00 in Snow Light Snow
12:51 PM 34.0 °F 24.6 °F 23.0 °F 64% 29.78 in 7.0 mi WNW 13.8 mph 18.4 mph 0.00 in Snow Light Snow
1:51 PM 33.1 °F 24.4 °F 25.0 °F 72% 29.78 in 6.0 mi WNW 11.5 mph - 0.00 in Snow Light Snow
2:38 PM 30.2 °F 20.2 °F 24.8 °F 80% 29.75 in 2.5 mi NW 12.7 mph 19.6 mph 0.00 in Snow Light Snow
2:49 PM 30.2 °F 19.8 °F 24.8 °F 80% 29.75 in 0.8 mi West 13.8 mph 24.2 mph 0.00 in Snow Light Snow
2:51 PM 30.0 °F 19.5 °F 25.0 °F 82% 29.80 in 0.8 mi WNW 13.8 mph 21.9 mph 0.00 in Snow Light Snow
3:18 PM 30.2 °F 21.9 °F 26.6 °F 86% 29.77 in 1.5 mi NNW 9.2 mph 18.4 mph 0.03 in Snow Light Snow
3:51 PM 30.9 °F 22.2 °F 25.0 °F 79% 29.81 in 8.0 mi WNW 10.4 mph - 0.03 in Snow Light Snow
4:01 PM 32.0 °F 21.2 °F 24.8 °F 75% 29.77 in 1.5 mi WNW 16.1 mph 21.9 mph 0.00 in Snow Light Snow
4:07 PM 30.2 °F 19.3 °F 24.8 °F 80% 29.77 in 0.5 mi WNW 15.0 mph 21.9 mph 0.00 in Snow Snow
4:25 PM 30.2 °F 22.6 °F 26.6 °F 86% 29.78 in 2.5 mi WNW 8.1 mph - 0.02 in Snow Light Snow
4:51 PM 30.9 °F 20.7 °F 24.1 °F 76% 29.82 in 1.5 mi NW 13.8 mph 18.4 mph 0.02 in Snow Light Snow
5:51 PM 28.9 °F 20.4 °F 25.0 °F 85% 29.84 in 1.0 mi WNW 9.2 mph - 0.02 in Snow Light Snow
6:51 PM 28.9 °F 22.8 °F 26.1 °F 89% 29.86 in 1.0 mi West 5.8 mph - 0.01 in Snow Light Snow
7:13 PM 28.4 °F 21.2 °F 26.6 °F 93% 29.82 in 6.0 mi West 6.9 mph - 0.00 in Snow Light Snow
7:51 PM 28.9 °F 22.8 °F 26.1 °F 89% 29.87 in 2.0 mi West 5.8 mph - 0.00 in Snow Light Snow
8:51 PM 28.9 °F 21.9 °F 26.1 °F 89% 29.88 in 1.0 mi WNW 6.9 mph - 0.01 in Snow Light Snow
9:51 PM 28.0 °F 22.8 °F 25.0 °F 88% 29.89 in 1.0 mi West 4.6 mph - 0.03 in Snow Light Snow
10:51 PM 28.0 °F 24.2 °F 24.1 °F 85% 29.89 in 2.0 mi West 3.5 mph - 0.02 in Snow Light Snow
11:21 PM 28.4 °F 24.6 °F 24.8 °F 86% 29.85 in 3.0 mi WSW 3.5 mph - 0.00 in Snow Light Snow
11:51 PM 28.0 °F 20.8 °F 24.1 °F 85% 29.88 in 7.0 mi WSW 6.9 mph - 0.00 in   Overcast